TimeCST,TemperatureF,Dew PointF,Humidity,Sea Level PressureIn,VisibilityMPH,Wind Direction,Wind SpeedMPH,Gust SpeedMPH,PrecipitationIn,Events,Conditions,WindDirDegrees,DateUTC
12:15 AM,39.2,30.2,70,29.91,10.0,NE,6.9,-,N/A,,Clear,50,2012-11-26 06:15:00
12:35 AM,37.4,30.2,75,29.91,10.0,NE,5.8,-,N/A,,Clear,40,2012-11-26 06:35:00
12:55 AM,37.4,30.2,75,29.91,10.0,NE,5.8,-,N/A,,Clear,40,2012-11-26 06:55:00
1:15 AM,35.6,28.4,75,29.92,10.0,NE,6.9,-,N/A,,Clear,40,2012-11-26 07:15:00
1:35 AM,35.6,28.4,75,29.92,10.0,NNE,5.8,-,N/A,,Clear,20,2012-11-26 07:35:00
1:55 AM,33.8,28.4,81,29.93,10.0,North,5.8,-,N/A,,Clear,350,2012-11-26 07:55:00
2:15 AM,32.0,28.4,87,29.93,10.0,North,8.1,-,N/A,,Clear,360,2012-11-26 08:15:00
2:35 AM,32.0,28.4,87,29.94,10.0,North,5.8,-,N/A,,Clear,360,2012-11-26 08:35:00
2:55 AM,32.0,28.4,87,29.95,10.0,North,8.1,-,N/A,,Clear,350,2012-11-26 08:55:00
3:15 AM,32.0,28.4,87,29.95,10.0,North,5.8,-,N/A,,Clear,350,2012-11-26 09:15:00
3:35 AM,32.0,28.4,87,29.96,10.0,North,6.9,-,N/A,,Clear,360,2012-11-26 09:35:00
3:55 AM,32.0,28.4,87,29.97,10.0,NNW,8.1,-,N/A,,Clear,340,2012-11-26 09:55:00
4:15 AM,32.0,28.4,87,29.97,10.0,NNW,8.1,-,N/A,,Clear,340,2012-11-26 10:15:00
4:35 AM,32.0,28.4,87,29.97,10.0,NNW,5.8,-,N/A,,Clear,340,2012-11-26 10:35:00
4:55 AM,32.0,28.4,87,29.99,10.0,NW,8.1,-,N/A,,Clear,320,2012-11-26 10:55:00
5:15 AM,32.0,28.4,87,30.00,10.0,NNW,9.2,-,N/A,,Clear,330,2012-11-26 11:15:00
5:35 AM,32.0,28.4,87,30.01,10.0,NNW,5.8,-,N/A,,Clear,330,2012-11-26 11:35:00
5:55 AM,32.0,28.4,87,30.01,10.0,NNW,9.2,-,N/A,,Clear,340,2012-11-26 11:55:00
6:15 AM,32.0,30.2,93,30.02,10.0,North,10.4,-,N/A,,Clear,350,2012-11-26 12:15:00
6:35 AM,32.0,28.4,87,30.04,10.0,NNW,9.2,-,N/A,,Clear,330,2012-11-26 12:35:00
6:55 AM,32.0,28.4,87,30.06,10.0,NNW,9.2,-,N/A,,Clear,330,2012-11-26 12:55:00
7:15 AM,32.0,28.4,87,30.08,10.0,NNW,10.4,-,N/A,,Clear,340,2012-11-26 13:15:00
7:35 AM,32.0,28.4,87,30.09,10.0,NNW,12.7,-,N/A,,Clear,340,2012-11-26 13:35:00
7:55 AM,32.0,28.4,87,30.11,10.0,North,15.0,18.4,N/A,,Clear,350,2012-11-26 13:55:00
8:15 AM,32.0,28.4,87,30.12,10.0,NNW,15.0,-,N/A,,Clear,340,2012-11-26 14:15:00
8:35 AM,32.0,28.4,87,30.14,10.0,North,17.3,23.0,N/A,,Clear,350,2012-11-26 14:35:00
8:55 AM,32.0,28.4,87,30.16,10.0,North,16.1,23.0,N/A,,Clear,360,2012-11-26 14:55:00
9:15 AM,33.8,28.4,81,30.17,10.0,North,12.7,18.4,N/A,,Clear,360,2012-11-26 15:15:00
9:55 AM,35.6,28.4,75,30.19,10.0,North,16.1,20.7,N/A,,Clear,350,2012-11-26 15:55:00
10:15 AM,37.4,28.4,70,30.20,10.0,North,15.0,-,N/A,,Clear,360,2012-11-26 16:15:00
10:35 AM,39.2,28.4,65,30.21,10.0,NNW,19.6,25.3,N/A,,Clear,340,2012-11-26 16:35:00
10:55 AM,41.0,28.4,61,30.23,10.0,NNW,18.4,26.5,N/A,,Clear,340,2012-11-26 16:55:00
11:15 AM,41.0,28.4,61,30.23,10.0,North,20.7,26.5,N/A,,Clear,350,2012-11-26 17:15:00
11:35 AM,42.8,30.2,61,30.23,10.0,North,20.7,27.6,N/A,,Clear,350,2012-11-26 17:35:00
11:55 AM,44.6,30.2,57,30.24,10.0,North,21.9,27.6,N/A,,Clear,360,2012-11-26 17:55:00
12:15 PM,44.6,30.2,57,30.24,10.0,North,25.3,29.9,N/A,,Clear,360,2012-11-26 18:15:00
12:35 PM,44.6,28.4,53,30.24,10.0,North,23.0,27.6,N/A,,Clear,350,2012-11-26 18:35:00
12:55 PM,46.4,28.4,50,30.24,10.0,North,20.7,29.9,N/A,,Clear,350,2012-11-26 18:55:00
1:15 PM,46.4,26.6,46,30.24,10.0,North,21.9,27.6,N/A,,Clear,350,2012-11-26 19:15:00
1:35 PM,46.4,26.6,46,30.24,10.0,North,20.7,27.6,N/A,,Clear,360,2012-11-26 19:35:00
1:55 PM,46.4,26.6,46,30.25,10.0,North,20.7,28.8,N/A,,Clear,360,2012-11-26 19:55:00
2:15 PM,50.0,23.0,35,30.25,10.0,North,21.9,26.5,N/A,,Clear,360,2012-11-26 20:15:00
2:35 PM,48.2,21.2,34,30.25,10.0,North,20.7,28.8,N/A,,Clear,360,2012-11-26 20:35:00
2:55 PM,48.2,19.4,32,30.26,10.0,North,23.0,31.1,N/A,,Clear,360,2012-11-26 20:55:00
3:15 PM,46.4,19.4,34,30.27,10.0,North,23.0,27.6,N/A,,Clear,360,2012-11-26 21:15:00
3:35 PM,44.6,19.4,37,30.28,10.0,North,17.3,28.8,N/A,,Clear,10,2012-11-26 21:35:00
3:55 PM,44.6,19.4,37,30.29,10.0,North,20.7,24.2,N/A,,Clear,360,2012-11-26 21:55:00
4:15 PM,44.6,19.4,37,30.30,10.0,North,19.6,25.3,N/A,,Clear,360,2012-11-26 22:15:00
4:35 PM,42.8,19.4,39,30.31,10.0,North,18.4,24.2,N/A,,Clear,10,2012-11-26 22:35:00
4:55 PM,42.8,19.4,39,30.32,10.0,North,17.3,24.2,N/A,,Clear,360,2012-11-26 22:55:00
5:15 PM,41.0,19.4,42,30.33,10.0,North,12.7,-,N/A,,Clear,10,2012-11-26 23:15:00
5:35 PM,41.0,21.2,45,30.34,10.0,North,9.2,-,N/A,,Clear,10,2012-11-26 23:35:00
5:55 PM,37.4,21.2,52,30.35,10.0,North,9.2,-,N/A,,Clear,10,2012-11-26 23:55:00
6:15 PM,37.4,23.0,56,30.36,10.0,North,8.1,-,N/A,,Clear,360,2012-11-27 00:15:00
6:35 PM,35.6,23.0,60,30.37,10.0,North,9.2,-,N/A,,Clear,10,2012-11-27 00:35:00
6:55 PM,35.6,23.0,60,30.39,10.0,North,6.9,-,N/A,,Clear,10,2012-11-27 00:55:00
7:15 PM,35.6,23.0,60,30.40,10.0,North,10.4,-,N/A,,Clear,10,2012-11-27 01:15:00
7:35 PM,35.6,23.0,60,30.41,10.0,NNE,11.5,-,N/A,,Clear,20,2012-11-27 01:35:00
7:55 PM,35.6,23.0,60,30.41,10.0,NNE,9.2,-,N/A,,Clear,20,2012-11-27 01:55:00
8:15 PM,33.8,23.0,65,30.42,10.0,NNE,8.1,-,N/A,,Clear,30,2012-11-27 02:15:00
8:35 PM,32.0,23.0,69,30.42,10.0,NNE,6.9,-,N/A,,Clear,20,2012-11-27 02:35:00
8:55 PM,32.0,23.0,69,30.43,10.0,NNE,8.1,-,N/A,,Clear,20,2012-11-27 02:55:00
9:15 PM,32.0,23.0,69,30.43,10.0,NNE,8.1,-,N/A,,Clear,20,2012-11-27 03:15:00
9:35 PM,33.8,24.8,70,30.44,10.0,NNE,9.2,-,N/A,,Clear,20,2012-11-27 03:35:00
9:55 PM,32.0,23.0,69,30.44,10.0,NNE,8.1,-,N/A,,Clear,30,2012-11-27 03:55:00
10:15 PM,32.0,23.0,69,30.45,10.0,North,8.1,-,N/A,,Clear,10,2012-11-27 04:15:00
10:35 PM,32.0,23.0,69,30.45,10.0,North,5.8,-,N/A,,Clear,10,2012-11-27 04:35:00
10:55 PM,30.2,23.0,75,30.45,10.0,North,5.8,-,N/A,,Clear,10,2012-11-27 04:55:00
11:15 PM,30.2,24.8,80,30.47,10.0,North,5.8,-,N/A,,Clear,360,2012-11-27 05:15:00
11:35 PM,30.2,24.8,80,30.47,10.0,North,5.8,-,N/A,,Clear,360,2012-11-27 05:35:00
11:55 PM,28.4,23.0,80,30.47,10.0,North,4.6,-,N/A,,Clear,10,2012-11-27 05:55:00